Flag Weather past 2 weeks in Limburg an der Lahn, Hesse, Germany

Now
37 °F

Clear.


Feels Like: 35 °F
Forecast: 33 / 43 °F
Wind: 3 mph from Northeast

Location: Hessen

Current Time: Nov 24, 2014 at 9:31:05 PM

Latest Report: Nov 24, 2014 at 8:50 PM


Visibility: 10 mi

Pressure: 30.30 "Hg

Humidity: 100%

Dew point: 37 °F

Location of Limburg an der LahnLocation

Historic Weather in Limburg an der Lahn — Graph

°F

Limburg an der Lahn temperature yesterday

Maximum temperature yesterday: 46 °F (at 12:50 PM)
Minimum temperature yesterday: 32 °F (at 8:20 AM)
Average temperature yesterday: 39 °F

Past Weeks' High & Low Weather Summary

 TemperatureHumidityPressure
High55 °F (Nov 12, 11:20 AM)100% (Nov 10, 7:50 AM)30.30 "Hg (Nov 10, 7:50 AM)
Low32 °F (Nov 22, 6:50 AM)72% (Nov 12, 11:20 AM)29.50 "Hg (Nov 16, 7:50 AM)
Average42 °F98%29.90 "Hg
* Reported Nov 10 7:50 AM — Nov 24 8:20 PM, Limburg an der Lahn, Weather by CustomWeather, © 2014

Note: Actual official high and low records may vary slightly from our data, if they occured in-between our weather recording intervals... More about our weather records

Advertising

Limburg an der Lahn weather history for previous 24 hours

 ConditionsComfort  
Time TempWeatherWind HumidityBarometerVisibility
8:20 PM
Nov 24
37 °FClear.3 mph100%30.30 "Hg10 mi
7:50 PM37 °FClear.3 mph93%30.27 "Hg10 mi
7:20 PM37 °FClear.3 mph93%30.27 "Hg10 mi
6:50 PM37 °FClear.2 mph100%30.27 "Hg10 mi
6:20 PM37 °FClear.3 mph100%30.27 "Hg10 mi
5:50 PM39 °FClear.2 mph93%30.27 "Hg10 mi
5:20 PM39 °FClear.3 mph93%30.27 "Hg10 mi
4:50 PM39 °FPassing clouds.3 mph93%30.27 "HgN/A
4:20 PM39 °FPassing clouds.6 mph93%30.24 "HgN/A
3:50 PM41 °FPassing clouds.6 mph87%30.24 "HgN/A
3:20 PM43 °FPassing clouds.5 mph81%30.24 "HgN/A
2:50 PM41 °FScattered clouds.3 mph93%30.24 "HgN/A
2:20 PM43 °FScattered clouds.5 mph81%30.24 "HgN/A
1:50 PM43 °FBroken clouds.6 mph87%30.24 "HgN/A
1:20 PM43 °FBroken clouds.6 mph87%30.24 "HgN/A
12:50 PM41 °FBroken clouds.8 mph100%30.24 "HgN/A
12:20 PM41 °FBroken clouds.8 mph100%30.21 "HgN/A
11:50 AM41 °FBroken clouds.14 mph100%30.21 "HgN/A
11:20 AM41 °FBroken clouds.14 mph100%30.21 "HgN/A
10:50 AM43 °FFog.14 mph100%30.21 "Hg3 mi
10:20 AM43 °FLight rain. Broken clouds.10 mph100%30.18 "Hg4 mi
9:50 AM43 °FLight rain. Broken clouds.14 mph100%30.18 "Hg4 mi
9:20 AM43 °FBroken clouds.14 mph100%30.18 "HgN/A
8:50 AM43 °FSprinkles. Broken clouds.15 mph100%30.15 "Hg5 mi
8:20 AM45 °FLight rain. Broken clouds.9 mph100%30.15 "Hg4 mi
7:50 AM45 °FLight rain. Partly cloudy.9 mph100%30.15 "Hg4 mi
6:50 AM45 °FDrizzle. Fog.10 mph100%30.12 "Hg1 mi
Weather by CustomWeather, © 2014

See weather overviewHow to use our weather pages